| time (UTC) | temp F | wind direction | speed knots | gust knots | rain 1hr in | rain 24hr in | rain mn in | humidity % | barometer mb |
| 20260506232743 | 42 | 360 | 5.2 | 9.6 | 0.00 | 0.00 | 0.00 | 70 | 1025.5 |
| 20260506222743 | 42 | 292 | 5.2 | 7.8 | 0.00 | 0.00 | 0.00 | 30 | 1025.5 |
| 20260506215744 | 42 | 360 | 3.5 | 7.8 | 0.00 | 0.00 | 0.00 | 13 | 1025.5 |
| 20260506205743 | 42 | 360 | 4.3 | 10.4 | 0.00 | 0.00 | 0.00 | 13 | 1025.4 |
| 20260506202742 | 43 | 360 | 8.7 | 14.8 | 0.00 | 0.00 | 0.00 | 13 | 1025.1 |
| 20260506195743 | 43 | 360 | 8.7 | 14.8 | 0.00 | 0.00 | 0.00 | 13 | 1025.1 |
| 20260506192744 | 43 | 315 | 8.7 | 17.4 | 0.00 | 0.00 | 0.00 | 13 | 1025.3 |
| 20260506185746 | 44 | 360 | 10.4 | 15.6 | 0.00 | 0.00 | 0.00 | 13 | 1025.0 |
| 20260506182741 | 45 | 360 | 9.6 | 16.5 | 0.00 | 0.00 | 0.00 | 13 | 1024.8 |
| 20260506175744 | 46 | 360 | 10.4 | 19.1 | 0.00 | 0.00 | 0.00 | 13 | 1024.6 |
| 20260506172745 | 46 | 292 | 13.0 | 17.4 | 0.00 | 0.00 | 0.00 | 13 | 1024.5 |
| 20260506165743 | 46 | 315 | 10.4 | 20.0 | 0.00 | 0.00 | 0.00 | 13 | 1024.5 |
| 20260506162748 | 47 | 360 | 13.0 | 16.5 | 0.00 | 0.00 | 0.00 | 13 | 1024.4 |
| 20260506155746 | 48 | 270 | 10.4 | 17.4 | 0.00 | 0.00 | 0.00 | 13 | 1024.5 |
| 20260506152744 | 49 | 360 | 8.7 | 19.1 | 0.00 | 0.00 | 0.00 | 13 | 1024.5 |
| 20260506145743 | 48 | 360 | 9.6 | 16.5 | 0.00 | 0.00 | 0.00 | 13 | 1024.8 |
| 20260506142743 | 48 | 360 | 8.7 | 13.0 | 0.00 | 0.00 | 0.00 | 13 | 1024.9 |
| 20260506135745 | 49 | 360 | 7.0 | 12.2 | 0.00 | 0.00 | 0.00 | 13 | 1024.8 |
| 20260506132746 | 50 | 270 | 5.2 | 10.4 | 0.00 | 0.00 | 0.00 | 13 | 1024.9 |
| 20260506125745 | 48 | 360 | 7.8 | 10.4 | 0.00 | 0.00 | 0.00 | 13 | 1025.0 |
| 20260506112746 | 48 | 360 | 5.2 | 8.7 | 0.00 | 0.00 | 0.00 | 13 | 1025.0 |
| 20260506105743 | 47 | 360 | 3.5 | 7.8 | 0.00 | 0.00 | 0.00 | 13 | 1025.0 |
| 20260506102744 | 44 | 270 | 7.8 | 14.8 | 0.00 | 0.00 | 0.00 | 13 | 1025.0 |
| 20260506095744 | 49 | 360 | 4.3 | 7.8 | 0.00 | 0.00 | 0.00 | 13 | 1025.0 |
| 20260506092744 | 49 | 360 | 2.6 | 5.2 | 0.00 | 0.00 | 0.00 | 13 | 1025.0 |
| 20260506085743 | 49 | 360 | 1.7 | 4.3 | 0.00 | 0.00 | 0.00 | 13 | 1025.0 |
| 20260506072743 | 52 | 90 | 0.9 | 3.5 | 0.00 | 0.00 | 0.00 | 13 | 1024.8 |
| 20260506042744 | 41 | 45 | 0.0 | 1.7 | 0.00 | 0.00 | 0.00 | 81 | 1024.5 |
| 20260506035745 | 39 | 45 | 0.0 | 3.5 | 0.00 | 0.00 | 0.00 | 69 | 1024.0 |
| 20260506032746 | 39 | 90 | 2.6 | 5.2 | 0.00 | 0.00 | 0.00 | 53 | 1024.4 |
| 20260506025746 | 39 | 90 | 1.7 | 5.2 | 0.00 | 0.00 | 0.00 | 45 | 1024.3 |
| 20260506022745 | 39 | 45 | 0.9 | 5.2 | 0.00 | 0.00 | 0.00 | 49 | 1024.3 |
| 20260506012749 | 40 | 360 | 3.5 | 6.1 | 0.00 | 0.00 | 0.00 | 51 | 1024.5 |
| 20260506005747 | 40 | 360 | 3.5 | 6.1 | 0.00 | 0.00 | 0.00 | 52 | 1024.5 |
| 20260506002744 | 40 | 45 | 4.3 | 7.8 | 0.00 | 0.00 | 0.00 | 53 | 1024.5 |
| 20260505235743 | 41 | 360 | 3.5 | 7.0 | 0.00 | 0.00 | 0.00 | 51 | 1024.6 |